Weather History for Raton, NM

Change the Weather History Date:

Sunday, June 16, 2013

  Actual Average (KTAD) Record (KTAD)
Temperature  
Mean Temperature 70 °F 69 °F  
Max Temperature 86 °F 84 °F 97 °F (1978)
Min Temperature 57 °F 53 °F 43 °F (1970)
Degree Days  
Heating Degree Days 0 1  
Month to date heating degree days 33  
Since 1 June heating degree days 33  
Since 1 July heating degree days 5528  
Cooling Degree Days 6 5  
Month to date cooling degree days 53  
Year to date cooling degree days 81  
Since 1 June cooling degree days 53  
Growing Degree Days 20 (Base 50)    
Moisture  
Dew Point 44 °F    
Average Humidity 41    
Maximum Humidity 72    
Minimum Humidity 23    
Precipitation  
Precipitation 0.00 in 0.04 in 1.54 in (1969)
Month to date precipitation 0.78  
Year to date precipitation 5.30  
Sea Level Pressure  
Sea Level Pressure 29.90 in    
Wind  
Wind Speed 12 mph (NE)    
Max Wind Speed 22 mph    
Max Gust Speed 26 mph    
Visibility 10 miles    
Events Rain    
T = Trace of Precipitation, MM = Missing Value Source: NWS Daily Summary

Daily Weather History Graph

Daily Weather History Graph

Search for Another Location

Airport:

Trip Planner

Search our weather history database for the weather conditions in past years. The results will help you decide how hot, cold, wet, or windy it might be!

Date:

Astronomy

Jun. 16, 2013 Rise Set
Actual Time 5:38 AM MDT 8:18 PM MDT
Civil Twilight 5:08 AM MDT 8:49 PM MDT
Nautical Twilight 4:29 AM MDT 9:27 PM MDT
Astronomical Twilight 3:46 AM MDT 10:10 PM MDT
Moon 1:06 PM MDT (6/16) 12:35 AM MDT (6/16)
Length of Visible Light 15h 41m
Length of Day
14h 40m
Waxing Crescent, 50% of the Moon is Illuminated
Jun 16
Waxing Crescent
Jun 23
Full
Jun 29
Last Quarter
Jul 8
New
Jul 15
First Quarter

Hourly Weather History & Observations

Time (MDT) Temp. Dew Point Humidity Pressure Visibility Wind Dir Wind Speed Gust Speed Precip Events Conditions
12:53 AM 68.0 °F 37.9 °F 33% 29.82 in 10.0 mi NNW 18.4 mph - N/A   Clear
1:53 AM 66.0 °F 39.0 °F 37% 29.86 in 10.0 mi NE 9.2 mph - N/A   Clear
2:53 AM 60.1 °F 41.0 °F 49% 29.85 in 10.0 mi ENE 10.4 mph - N/A   Clear
3:53 AM 57.9 °F 39.9 °F 51% 29.88 in 10.0 mi NNE 9.2 mph - N/A   Clear
4:53 AM 57.9 °F 41.0 °F 53% 29.90 in 10.0 mi NNE 6.9 mph - N/A   Clear
5:53 AM 57.9 °F 41.0 °F 53% 29.96 in 10.0 mi NE 8.1 mph - N/A   Clear
6:53 AM 59.0 °F 50.0 °F 72% 29.96 in 10.0 mi ENE 15.0 mph - N/A   Clear
7:53 AM 63.0 °F 50.0 °F 63% 29.96 in 10.0 mi NE 9.2 mph - N/A   Clear
8:53 AM 66.9 °F 53.1 °F 61% 29.98 in 10.0 mi ENE 6.9 mph - N/A   Clear
9:53 AM 70.0 °F 51.1 °F 51% 29.96 in 10.0 mi SSW 5.8 mph - N/A   Clear
10:53 AM 73.0 °F 48.0 °F 41% 29.96 in 10.0 mi SSW 5.8 mph - N/A   Clear
11:53 AM 77.0 °F 46.0 °F 33% 29.93 in 10.0 mi Variable 5.8 mph - N/A   Clear
12:53 PM 80.1 °F 43.0 °F 27% 29.89 in 10.0 mi SSW 6.9 mph - N/A   Clear
1:53 PM 84.0 °F 44.1 °F 25% 29.85 in 10.0 mi WSW 9.2 mph 17.3 mph N/A   Clear
2:53 PM 82.9 °F 45.0 °F 26% 29.84 in 10.0 mi SE 13.8 mph 18.4 mph 0.00 in Rain Light Rain
3:53 PM 78.1 °F 41.0 °F 27% 29.88 in 10.0 mi SSW 12.7 mph 25.3 mph 0.00 in Rain Light Rain
4:53 PM 82.9 °F 42.1 °F 24% 29.83 in 10.0 mi South 11.5 mph 18.4 mph 0.00 in   Clear
5:53 PM 82.0 °F 41.0 °F 23% 29.82 in 10.0 mi SSW 12.7 mph 18.4 mph N/A   Clear
6:53 PM 75.9 °F 43.0 °F 31% 29.88 in 10.0 mi NE 21.9 mph 26.5 mph N/A   Clear
7:53 PM 70.0 °F 44.1 °F 39% 29.94 in 10.0 mi North 15.0 mph - N/A   Partly Cloudy
8:53 PM 69.1 °F 42.1 °F 38% 29.92 in 10.0 mi NNE 15.0 mph - 0.00 in   Partly Cloudy
9:53 PM 64.9 °F 43.0 °F 45% 29.96 in 10.0 mi NNW 9.2 mph - N/A   Clear
10:53 PM 66.9 °F 42.1 °F 40% 29.95 in 10.0 mi North 9.2 mph - N/A   Partly Cloudy
11:53 PM 64.9 °F 42.1 °F 43% 29.94 in 10.0 mi North 11.5 mph - N/A   Clear